Miscellaneous Local Product
Issued by NWS North Platte, NE

Home | Current Version | Previous Version | Graphics & Text | Print | Product List | Glossary On
Versions: 1 2 3 4 5 6 7 8 9 10 11 12 13 14 15 16 17 18 19 20 21 22 23 24 25 26 27 28 29 30 31 32 33 34 35 36 37 38 39 40 41 42 43 44 45 46 47 48 49 50
000
AXUS43 KLBF 250810
MISLBF


WESTERN AND NORTH CENTRAL NEBRASKA HOURLY WEATHER ROUNDUP
NATIONAL WEATHER SERVICE NORTH PLATTE NE
300 AM CDT TUE APR 25 2017

NOTE: "FAIR" INDICATES FEW OR NO CLOUDS BELOW 12,000 FEET WITH NO
SIGNIFICANT WEATHER AND/OR OBSTRUCTIONS TO VISIBILITY.

NOTE: STATIONS NOT REPORTING VARIABLES SUCH AS SKY/WEATHER OR
PRESSURE ARE PROVIDED BY RAWS AND APRS NETWORKS AND ARE NOT UNDER
NATIONAL WEATHER SERVICE QUALITY CONTROL.

...OBSERVATIONS IN AND NEAR THE EASTERN PANHANDLE OF NEBRASKA...

CITY           SKY/WX    TMP DP  RH WIND       PRES   REMARKS
PINE RIDGE     RAIN      43  41  93 NE10      29.62R FOG
CHADRON        LGT RAIN  46  44  93 NE13      29.58F
ALLIANCE       RAIN      46  44  93 W3        29.59R FOG
SIDNEY         LGT RAIN  42  40  92 NW17      29.58F
CRESCENT LAKE    N/A     45  43  92 W9G16       N/A
$$

...OBSERVATIONS IN NORTHERN NEBRASKA AND FAR SOUTHERN SOUTH DAKOTA...

CITY           SKY/WX    TMP DP  RH WIND       PRES   REMARKS
WINNER         CLOUDY    39  36  89 N10       29.64F WCI  32
VALENTINE      CLOUDY    39  33  79 NE14      29.61F WCI  31
THEDFORD       CLOUDY    45  40  85 E10       29.57F
AINSWORTH      CLOUDY    40  38  93 NE9       29.60F WCI  34
O`NEILL        CLOUDY    42  38  86 N10       29.62R
ORD            CLOUDY    47  39  74 N10       29.57R
BROKEN BOW     LGT RAIN  46  40  79 N15       29.55F
VALENTINE NWR    N/A     41  37  84 NE8         N/A
HALSEY           N/A     45  40  82 NE5         N/A
BUTTE            N/A     39  36  89 N9G16       N/A  WCI  33
CHAMBERS         N/A     43  38  84 N3          N/A
EWING            N/A     43  39  85 N5          N/A
$$

...OBSERVATIONS IN SOUTHWEST NEBRASKA AND FAR NORTHEAST COLORADO...

CITY           SKY/WX    TMP DP  RH WIND       PRES   REMARKS
HOLYOKE        PTSUNNY   48  43  81 N8        29.53R
IMPERIAL       CLOUDY    46  43  89 E17G25    29.48F
OGALLALA       CLOUDY    47  45  90 E10       29.51S
NORTH PLATTE   CLOUDY    47  45  93 E10       29.54F
MCCOOK         CLOUDY    53  41  63 W17G24    29.58R
LEXINGTON      LGT RAIN  48  43  82 NE12      29.57R
STAPLETON        N/A     44  42  94 E3          N/A
GOTHENBURG       N/A     50  41  70 N8          N/A
CALLAWAY         N/A     47  42  84 NE6         N/A
$$

...OBSERVATIONS IN CENTRAL LINCOLN COUNTY AREA...

CITY           SKY/WX    TMP DP  RH WIND       PRES   REMARKS
N.P. AIRPORT   CLOUDY    47  45  93 E10       29.54F
N.P. DOWNTOWN    N/A     46  44  91 E5G12       N/A
N.P. SOUTHEAST   N/A     46  43  90 CALM        N/A
N.P. HILLCREST   N/A     46  44  92 E20         N/A
$$

...SOME OBSERVATIONS FROM AROUND THE REGION...

CITY           SKY/WX    TMP DP  RH WIND       PRES   REMARKS
DENVER         CLOUDY    43  38  82 NW10      29.59F
LIMON          CLOUDY    44  39  82 N8        29.52R
ASPEN          LGT SNOW  31  31 100 N3        29.77F VSB 3/4
CASPER         FLURRIES  38  35  89 W25G35    29.50S WCI  27
CHEYENNE       CLOUDY    38  33  82 W6        29.55F WCI  33
SCOTTSBLUFF    LGT RAIN  46  43  89 E12       29.56F
GRAND ISLAND   CLOUDY    46  40  79 N14       29.54F
OMAHA          CLOUDY    54  43  66 N12       29.51S
SIOUX FALLS    CLOUDY    42  40  92 N12       29.57S
PIERRE         CLOUDY    36  32  85 N15       29.67R WCI  27
RAPID CITY     CLOUDY    37  34  89 E7        29.65S WCI  32
BISMARCK       CLOUDY    33  29  85 NE15G22   29.76S WCI  23
KANSAS CITY    PTCLDY    61  46  57 S14       29.55F
HILL CITY      CLOUDY    59  45  59 NE14      29.45F
WICHITA        MOCLDY    61  49  64 SE16      29.43F
DODGE CITY     CLEAR     54  50  86 SE10      29.37F
OKLAHOMA CITY  MOCLDY    62  50  64 S21G26    29.46F
DALLAS         PTCLDY    67  54  63 S16G28    29.56F
AMARILLO       CLOUDY    71  21  15 W20       29.45F
$$




USA.gov is the U.S. government's official web portal to all federal, state and local government web resources and services.